Location: Bishop's University Astronomical Observatory
(45.3661°N, 71.8475°W)
Time: 10:15:16
(UTC-05:00)

CZ-4C R/B - Visible Passes

Search period start: 24 January 2017 00:00
Search period end: 03 February 2017 00:00
Orbit: 726 x 1276 km, 63.4° (Epoch: 23 January)

Date Brightness Start Highest point End Pass type
(mag) Time Alt. Az. Time Alt. Az. Time Alt. Az.
24 Jan 4.0 18:03:18 10° NNW 18:08:23 22° NNE 18:11:11 18° NE visible
24 Jan 3.4 19:51:31 10° NNW 19:56:23 45° N 19:56:23 45° N visible
24 Jan 5.1 21:40:19 10° NW 21:41:36 16° NW 21:41:36 16° NW visible
25 Jan 3.6 18:36:46 10° NNW 18:42:47 32° NE 18:44:11 30° NE visible
25 Jan 3.7 20:25:01 10° NW 20:29:24 43° NW 20:29:24 43° NW visible
26 Jan 4.1 17:21:53 10° NNW 17:26:42 21° NNE 17:31:56 10° ENE visible
26 Jan 3.0 19:10:09 10° NNW 19:16:53 51° NE 19:17:18 50° NE visible
26 Jan 4.3 20:58:47 10° NW 21:02:31 31° WNW 21:02:31 31° WNW visible
27 Jan 3.7 17:55:23 10° NNW 18:01:11 29° NNE 18:05:17 18° ENE visible
27 Jan 2.7 19:43:36 10° NW 19:50:32 84° NNE 19:50:32 84° NNE visible
27 Jan 4.9 21:33:08 10° WNW 21:35:46 19° W 21:35:46 19° W visible
28 Jan 3.2 18:28:47 10° NNW 18:35:21 45° NE 18:38:41 29° E visible
28 Jan 3.4 20:17:16 10° NW 20:23:56 54° WSW 20:23:56 54° WSW visible
29 Jan 3.8 17:14:00 10° NNW 17:19:33 26° NNE 17:25:39 10° E visible
29 Jan 2.7 19:02:12 10° NW 19:09:14 75° NE 19:12:16 40° SE visible
29 Jan 4.3 20:51:25 10° WNW 20:57:28 29° WSW 20:57:32 29° WSW visible
30 Jan 3.3 17:47:25 10° NNW 17:53:49 40° NE 18:00:52 10° ESE visible
30 Jan 3.2 19:35:48 10° NW 19:42:49 64° WSW 19:46:09 36° S visible
30 Jan 5.2 21:26:59 10° WNW 21:30:26 14° WSW 21:31:27 13° WSW visible
31 Jan 2.8 18:20:49 10° NW 18:27:46 66° NE 18:35:07 12° SE visible
31 Jan 4.2 20:09:47 10° NW 20:16:10 34° WSW 20:20:26 20° SSW visible
01 Feb 3.0 18:54:21 10° NW 19:01:26 74° SW 19:09:17 10° SSE visible
01 Feb 5.1 20:44:45 10° WNW 20:49:12 17° WSW 20:53:51 10° SW visible
02 Feb 3.0 17:39:26 10° NNW 17:46:17 57° NE 17:53:55 10° SE visible
02 Feb 4.0 19:28:12 10° NW 19:34:50 40° WSW 19:42:02 10° S visible
